"startDT [UTC]","vpos","CH4 [ppm]","stdev(CH4) [ppm]","CO2 [ppm]","stdev(CO2) [ppm]","H2O_reported [%]","stdev(H2O_reported)","CavityPressure [torr]","CavityTemp [C]","OutletValve","CH4_dry [ppm]","CO2_dry [ppm]","DasTemp [C]","EtalonTemp [C]","WarmBoxTemp [C]","MPVPosition","T_ECpre [C]","T_EC1 [C]","T_EC2 [C]","p_inlet [hPa]","p_in [hPa]","p_out [hPa]","T_inlet [C]","RH_inlet [%]","dwpt_inlet [C]","T_vent [C]","RH_vent [%]","dwpt_vent [C]","flow_vent [l min-1]","flow_inlet [l min-1]","dwpt_sample [C]","T_room [C]"
2016-11-17 00:00:00,0.0,1.97005,0.00044,408.999,0.029,0.3569,0.0018,140.001,45.000,31725.29502,1.97701,410.773,35.937,45.072,45.000,0.00,0.07,-272.87,-272.91,-9,533,-945,22.1,10.0,-11.0,21.8,10.3,-10.8,0.46,1.74,-8.5,26.8
2016-11-17 00:01:00,0.0,1.97000,0.00035,408.978,0.039,0.3573,0.0017,140.000,45.000,31724.65414,1.97699,410.754,35.937,45.071,45.000,0.00,0.07,-272.87,-272.91,-7,533,-944,22.1,10.0,-11.0,21.8,10.3,-10.7,0.46,2.05,-8.5,26.8
2016-11-17 00:02:00,0.0,1.96970,0.00044,408.953,0.036,0.3578,0.0018,139.998,45.000,31724.02841,1.97674,410.730,35.927,45.071,44.999,0.00,0.07,-272.88,-272.91,-9,533,-944,22.1,10.0,-11.0,21.8,10.3,-10.7,0.46,1.76,-8.5,26.8
2016-11-17 00:03:00,0.0,1.96969,0.00038,408.905,0.031,0.3576,0.0019,140.000,44.999,31723.11651,1.97670,410.682,35.932,45.071,44.999,0.00,0.07,-272.88,-272.92,-8,533,-944,22.1,10.0,-11.0,21.8,10.4,-10.7,0.47,2.03,-8.5,26.8
2016-11-17 00:04:00,0.0,1.96982,0.00038,408.903,0.028,0.3581,0.0013,139.998,45.000,31722.11378,1.97683,410.682,35.938,45.071,44.999,0.00,0.07,-272.87,-272.91,-8,533,-944,22.1,10.0,-10.9,21.8,10.4,-10.7,0.46,1.78,-8.5,26.8
2016-11-17 00:05:00,0.0,1.96945,0.00038,408.892,0.048,0.3587,0.0015,140.001,45.000,31725.05585,1.97649,410.674,35.939,45.071,45.000,0.00,0.07,-272.87,-272.91,-8,533,-944,22.1,10.0,-10.9,21.8,10.4,-10.7,0.46,2.01,-8.6,26.8
2016-11-17 00:06:00,0.0,1.96921,0.00028,408.877,0.027,0.3596,0.0017,140.000,45.000,31726.69912,1.97625,410.663,35.937,45.071,45.000,0.00,0.07,-272.88,-272.91,-8,533,-944,22.1,10.0,-10.9,21.8,10.4,-10.7,0.46,1.81,-8.6,26.8
2016-11-17 00:07:00,0.0,1.96939,0.00036,408.894,0.029,0.3611,0.0015,140.003,45.000,31725.41357,1.97643,410.686,35.926,45.071,45.000,0.00,0.07,-272.87,-272.90,-9,533,-944,22.1,10.1,-10.8,21.8,10.4,-10.6,0.47,1.97,-8.6,26.8
2016-11-17 00:08:00,0.0,1.96957,0.00042,408.900,0.031,0.3606,0.0013,140.003,45.000,31723.28328,1.97665,410.693,35.930,45.072,45.000,0.00,0.07,-272.87,-272.90,-7,533,-944,22.1,10.1,-10.9,21.8,10.4,-10.6,0.46,1.86,-8.6,26.8
2016-11-17 00:09:00,0.0,1.96948,0.00042,408.892,0.053,0.3595,0.0019,140.003,45.000,31724.53357,1.97651,410.677,35.938,45.072,45.001,0.00,0.07,-272.88,-272.92,-9,533,-944,22.1,10.1,-10.9,21.8,10.4,-10.6,0.47,1.92,-8.6,26.8
2016-11-17 00:10:00,0.0,1.96954,0.00035,408.950,0.047,0.3561,0.0021,140.001,45.000,31726.48534,1.97651,410.717,35.924,45.072,45.000,0.00,0.07,-272.88,-272.91,-7,533,-944,22.0,10.0,-11.0,21.8,10.3,-10.7,0.46,1.90,-8.6,26.8
2016-11-17 00:11:00,0.0,1.96942,0.00033,408.964,0.044,0.3557,0.0019,140.002,45.000,31724.84651,1.97640,410.733,35.927,45.072,45.001,0.00,0.07,-272.86,-272.91,-9,533,-944,22.1,10.0,-11.0,21.8,10.3,-10.8,0.46,1.87,-8.6,26.8
2016-11-17 00:12:00,0.0,1.96987,0.00028,409.007,0.029,0.3551,0.0017,139.999,45.000,31722.72148,1.97681,410.770,35.928,45.072,45.000,0.00,0.07,-272.88,-272.91,-7,533,-944,22.0,10.0,-11.0,21.8,10.3,-10.8,0.46,1.95,-8.7,26.8
2016-11-17 00:13:00,0.0,1.97007,0.00036,409.073,0.036,0.3542,0.0022,140.000,45.000,31721.77370,1.97701,410.832,35.924,45.072,45.000,0.00,0.07,-272.88,-272.92,-9,533,-944,22.1,9.9,-11.1,21.8,10.3,-10.8,0.47,1.83,-8.7,26.8
2016-11-17 00:14:00,0.0,1.96970,0.00053,409.076,0.039,0.3527,0.0025,139.999,45.000,31724.89440,1.97661,410.829,35.908,45.072,45.001,0.00,0.07,-272.88,-272.91,-7,533,-944,22.0,9.9,-11.1,21.8,10.2,-10.9,0.46,2.00,-8.7,26.8
2016-11-17 00:15:00,0.0,1.96968,0.00041,409.038,0.029,0.3536,0.0010,140.003,45.000,31724.79075,1.97662,410.795,35.913,45.072,45.001,0.00,0.07,-272.87,-272.92,-8,533,-944,22.0,9.9,-11.1,21.8,10.2,-10.9,0.46,1.78,-8.7,26.8
2016-11-17 00:16:00,0.0,1.96942,0.00033,409.042,0.033,0.3521,0.0015,140.001,45.000,31726.37109,1.97630,410.791,35.898,45.072,45.001,0.00,0.07,-272.89,-272.91,-8,533,-944,22.0,9.9,-11.1,21.8,10.2,-10.9,0.46,2.05,-8.7,26.7
2016-11-17 00:17:00,0.0,1.96949,0.00046,409.018,0.027,0.3520,0.0015,140.002,45.000,31726.49238,1.97637,410.768,35.931,45.072,45.001,0.00,0.07,-272.87,-272.91,-8,533,-944,22.0,9.9,-11.2,21.8,10.2,-10.9,0.46,1.74,-8.7,26.7
2016-11-17 00:18:00,0.0,1.96959,0.00036,408.996,0.032,0.3517,0.0016,140.001,45.000,31724.16832,1.97649,410.742,35.927,45.072,45.000,0.00,0.07,-272.88,-272.90,-8,533,-944,22.0,9.9,-11.1,21.8,10.2,-11.0,0.46,2.08,-8.7,26.7
2016-11-17 00:19:00,0.0,1.96936,0.00034,409.006,0.034,0.3521,0.0019,140.000,45.000,31725.45096,1.97625,410.757,35.932,45.072,45.000,0.00,0.07,-272.88,-272.91,-8,533,-944,22.0,9.9,-11.1,21.8,10.2,-11.0,0.46,1.72,-8.7,26.7
2016-11-17 00:20:00,0.0,1.96958,0.00029,409.006,0.034,0.3516,0.0017,140.000,45.000,31723.68857,1.97646,410.751,35.960,45.071,45.000,0.00,0.07,-272.88,-272.91,-9,533,-944,22.0,9.9,-11.2,21.8,10.2,-11.0,0.46,2.09,-8.7,26.8
2016-11-17 00:21:00,0.0,1.96952,0.00042,409.023,0.032,0.3515,0.0020,140.001,45.000,31724.32658,1.97641,410.770,36.002,45.071,45.000,0.00,0.07,-272.86,-272.91,-7,533,-944,22.1,9.9,-11.1,21.8,10.2,-11.0,0.46,1.71,-8.7,26.7
2016-11-17 00:22:00,0.0,1.96996,0.00039,409.065,0.035,0.3510,0.0016,139.999,45.000,31721.90274,1.97682,410.807,36.051,45.071,44.999,0.00,0.07,-272.87,-272.91,-9,533,-944,22.1,9.9,-11.2,21.8,10.2,-10.9,0.46,2.10,-8.7,26.7
2016-11-17 00:23:00,0.0,1.96967,0.00040,409.042,0.035,0.3508,0.0012,140.002,45.000,31721.38447,1.97656,410.785,36.059,45.070,44.999,0.00,0.07,-272.87,-272.92,-7,533,-944,22.0,9.8,-11.2,21.8,10.2,-11.0,0.46,1.71,-8.7,26.8
2016-11-17 00:24:00,0.0,1.96923,0.00034,409.030,0.040,0.3511,0.0016,140.002,45.000,31722.64361,1.97612,410.775,36.059,45.070,44.999,0.00,0.07,-272.87,-272.91,-9,533,-944,22.0,9.9,-11.2,21.8,10.2,-11.0,0.47,2.09,-8.7,26.8
2016-11-17 00:25:00,0.0,1.96919,0.00037,409.022,0.030,0.3494,0.0022,140.002,45.000,31722.72782,1.97603,410.757,36.030,45.070,44.999,0.00,0.07,-272.88,-272.91,-7,533,-944,22.0,9.8,-11.2,21.7,10.2,-11.0,0.46,1.72,-8.7,26.7
2016-11-17 00:26:00,0.0,1.96955,0.00038,409.031,0.049,0.3474,0.0013,140.001,45.000,31721.05246,1.97634,410.758,36.006,45.071,45.000,0.00,0.07,-272.88,-272.92,-9,533,-944,22.0,9.8,-11.3,21.7,10.1,-11.1,0.47,2.07,-8.8,26.7
2016-11-17 00:27:00,0.0,1.96970,0.00029,409.022,0.031,0.3469,0.0014,139.998,45.000,31719.99930,1.97646,410.745,35.998,45.071,45.000,0.00,0.07,-272.87,-272.91,-7,533,-944,22.0,9.8,-11.3,21.8,10.1,-11.1,0.46,1.74,-8.8,26.7
2016-11-17 00:28:00,0.0,1.96959,0.00034,409.061,0.030,0.3486,0.0014,140.000,45.000,31720.11739,1.97642,410.792,35.986,45.071,45.000,0.00,0.07,-272.88,-272.91,-8,533,-944,22.0,9.8,-11.2,21.8,10.1,-11.1,0.47,2.04,-8.8,26.7
2016-11-17 00:29:00,0.0,1.96954,0.00041,409.054,0.028,0.3493,0.0020,140.002,45.000,31719.09530,1.97641,410.788,35.984,45.072,45.000,0.00,0.07,-272.88,-272.91,-8,533,-944,22.0,9.8,-11.2,21.8,10.2,-11.0,0.46,1.78,-8.8,26.7
2016-11-17 00:30:00,0.0,1.96929,0.00037,409.027,0.040,0.3492,0.0014,140.003,45.000,31721.20310,1.97611,410.763,35.994,45.071,45.000,0.00,0.07,-272.88,-272.92,-8,533,-944,22.0,9.8,-11.2,21.8,10.1,-11.0,0.47,2.01,-8.8,26.8
2016-11-17 00:31:00,0.0,1.96930,0.00039,408.985,0.052,0.3494,0.0017,140.000,45.000,31720.18231,1.97612,410.720,35.992,45.071,45.000,0.00,0.07,-272.87,-272.91,-8,533,-944,22.0,9.8,-11.2,21.8,10.2,-11.0,0.46,1.82,-8.8,26.8
2016-11-17 00:32:00,0.0,1.96902,0.00047,408.948,0.032,0.3521,0.0018,140.001,45.000,31720.78590,1.97592,410.697,35.981,45.071,45.000,0.00,0.07,-272.88,-272.91,-8,533,-944,22.0,9.9,-11.1,21.8,10.2,-11.0,0.47,1.96,-8.8,26.8
2016-11-17 00:33:00,0.0,1.96927,0.00038,408.983,0.027,0.3521,0.0017,140.000,45.000,31719.49683,1.97616,410.732,35.987,45.071,45.000,0.00,0.07,-272.89,-272.91,-9,533,-944,22.0,9.9,-11.1,21.8,10.2,-10.9,0.46,1.86,-8.8,26.7
2016-11-17 00:34:00,0.0,1.96904,0.00042,408.931,0.048,0.3510,0.0017,139.997,45.000,31717.38110,1.97594,410.676,35.991,45.071,45.000,0.00,0.07,-272.87,-272.91,-7,533,-944,22.0,9.9,-11.2,21.8,10.2,-10.9,0.47,1.92,-8.8,26.7
2016-11-17 00:35:00,0.0,1.96873,0.00033,408.866,0.029,0.3536,0.0018,140.001,45.000,31718.71566,1.97564,410.624,35.977,45.071,45.000,0.00,0.07,-272.88,-272.90,-9,533,-944,22.0,9.9,-11.1,21.8,10.2,-10.9,0.46,1.92,-8.8,26.7
2016-11-17 00:36:00,0.0,1.96884,0.00032,408.868,0.043,0.3527,0.0024,139.998,45.000,31717.84681,1.97572,410.618,35.951,45.071,45.000,0.00,0.07,-272.88,-272.92,-7,533,-944,22.0,9.9,-11.1,21.7,10.2,-10.9,0.47,1.86,-8.8,26.7
2016-11-17 00:37:00,0.0,1.96907,0.00035,408.863,0.032,0.3527,0.0022,140.000,45.000,31719.83557,1.97599,410.616,35.958,45.072,45.000,0.00,0.07,-272.88,-272.91,-9,533,-944,22.0,9.9,-11.1,21.7,10.2,-10.9,0.46,1.97,-8.8,26.7
2016-11-17 00:38:00,0.0,1.96859,0.00044,408.806,0.027,0.3551,0.0025,140.000,45.000,31721.53617,1.97556,410.570,35.991,45.072,45.000,0.00,0.07,-272.86,-272.91,-7,533,-944,22.0,10.0,-11.0,21.7,10.3,-10.9,0.47,1.80,-8.8,26.7
2016-11-17 00:39:00,0.0,1.96874,0.00032,408.832,0.033,0.3544,0.0017,140.002,45.000,31722.06549,1.97565,410.590,36.000,45.072,45.000,0.00,0.07,-272.88,-272.91,-9,533,-944,22.0,10.0,-11.1,21.7,10.3,-10.9,0.46,2.03,-8.8,26.7
2016-11-17 00:40:00,0.0,1.96839,0.00041,408.823,0.043,0.3562,0.0020,140.000,45.000,31720.11493,1.97540,410.596,36.000,45.071,45.000,0.00,0.07,-272.87,-272.92,-7,533,-944,22.0,10.0,-11.0,21.7,10.3,-10.8,0.46,1.75,-8.8,26.7
2016-11-17 00:41:00,0.0,1.96862,0.00039,408.831,0.063,0.3553,0.0012,140.001,45.000,31721.33002,1.97553,410.593,36.000,45.071,45.000,0.00,0.07,-272.88,-272.91,-8,533,-944,22.0,10.0,-11.0,21.7,10.3,-10.8,0.46,2.07,-8.8,26.7
2016-11-17 00:42:00,0.0,1.96865,0.00036,408.852,0.034,0.3545,0.0015,140.001,45.000,31721.19676,1.97560,410.613,35.997,45.071,45.000,0.00,0.07,-272.87,-272.91,-8,533,-944,22.0,10.0,-11.1,21.7,10.3,-10.8,0.46,1.72,-8.8,26.7
2016-11-17 00:43:00,0.0,1.96885,0.00034,408.852,0.030,0.3534,0.0013,140.001,45.000,31722.13349,1.97576,410.608,36.000,45.071,45.000,0.00,0.07,-272.88,-272.91,-8,532,-944,22.0,9.9,-11.1,21.7,10.3,-10.9,0.46,2.10,-8.8,26.7
2016-11-17 00:44:00,0.0,1.96834,0.00029,408.833,0.037,0.3540,0.0012,140.001,45.000,31724.00075,1.97526,410.592,36.000,45.071,45.000,0.00,0.07,-272.87,-272.91,-8,533,-944,22.0,10.0,-11.1,21.7,10.3,-10.9,0.46,1.71,-8.8,26.7
2016-11-17 00:45:00,0.0,1.96865,0.00032,408.866,0.039,0.3534,0.0012,140.002,45.000,31723.42624,1.97556,410.619,36.011,45.071,45.000,0.00,0.07,-272.87,-272.90,-8,533,-944,22.0,10.0,-11.1,21.7,10.3,-10.9,0.46,2.08,-8.8,26.7
2016-11-17 00:46:00,0.0,1.96835,0.00049,408.848,0.047,0.3536,0.0021,140.001,45.000,31723.85127,1.97528,410.604,36.062,45.072,45.000,0.00,0.07,-272.88,-272.91,-8,533,-944,22.0,9.9,-11.1,21.7,10.3,-10.9,0.46,1.74,-8.8,26.7
2016-11-17 00:47:00,0.0,1.96841,0.00039,408.829,0.061,0.3536,0.0016,140.000,45.000,31723.45781,1.97532,410.586,36.065,45.071,45.000,0.00,0.07,-272.88,-272.91,-8,532,-944,22.0,10.0,-11.1,21.7,10.3,-10.9,0.47,2.04,-8.8,26.7
2016-11-17 00:48:00,0.0,1.96824,0.00036,408.792,0.039,0.3534,0.0018,139.999,45.000,31722.70524,1.97517,410.548,36.064,45.071,45.000,0.00,0.07,-272.87,-272.91,-8,533,-944,22.0,9.9,-11.1,21.7,10.3,-10.9,0.46,1.80,-8.8,26.7
2016-11-17 00:49:00,0.0,1.96826,0.00039,408.782,0.038,0.3524,0.0017,140.001,45.000,31722.46326,1.97514,410.531,36.062,45.071,45.000,0.00,0.07,-272.87,-272.92,-7,533,-944,22.0,9.9,-11.1,21.7,10.3,-10.9,0.46,1.97,-8.8,26.7
2016-11-17 00:50:00,0.0,1.96847,0.00032,408.799,0.038,0.3516,0.0018,140.001,45.000,31721.80867,1.97536,410.545,36.058,45.071,45.000,0.00,0.07,-272.88,-272.91,-9,533,-944,22.0,9.9,-11.2,21.7,10.2,-10.9,0.46,1.86,-8.8,26.7
2016-11-17 00:51:00,0.0,1.96823,0.00037,408.760,0.038,0.3534,0.0022,140.000,45.000,31721.58489,1.97517,410.517,36.030,45.071,45.000,0.00,0.07,-272.87,-272.91,-7,533,-944,22.0,9.9,-11.1,21.7,10.2,-10.9,0.47,1.91,-8.8,26.7
2016-11-17 00:52:00,0.0,1.96827,0.00035,408.726,0.038,0.3544,0.0012,140.000,45.000,31720.42207,1.97519,410.485,36.032,45.071,45.000,0.00,0.07,-272.88,-272.91,-9,533,-944,22.0,9.9,-11.1,21.7,10.3,-10.9,0.46,1.93,-8.8,26.7
2016-11-17 00:53:00,0.0,1.96786,0.00035,408.670,0.026,0.3543,0.0018,140.002,45.000,31723.15177,1.97479,410.428,36.052,45.071,45.000,0.00,0.07,-272.87,-272.92,-7,533,-944,22.0,10.0,-11.1,21.7,10.3,-10.9,0.46,1.84,-8.8,26.7
2016-11-17 00:54:00,0.0,1.96822,0.00031,408.677,0.040,0.3561,0.0014,139.999,45.000,31720.44216,1.97520,410.445,36.052,45.071,45.000,0.00,0.07,-272.87,-272.91,-9,533,-944,22.0,10.0,-11.0,21.7,10.3,-10.8,0.46,1.99,-8.8,26.7
2016-11-17 00:55:00,0.0,1.96790,0.00048,408.610,0.036,0.3561,0.0014,140.002,45.000,31721.84786,1.97487,410.379,36.029,45.071,45.000,0.00,0.07,-272.87,-272.91,-7,533,-944,22.0,10.0,-11.0,21.7,10.3,-10.8,0.46,1.78,-8.8,26.7
2016-11-17 00:56:00,0.0,1.96767,0.00035,408.611,0.036,0.3579,0.0020,139.998,45.000,31721.66741,1.97466,410.385,36.004,45.071,45.000,0.00,0.07,-272.88,-272.91,-9,533,-944,22.0,10.1,-11.0,21.7,10.4,-10.8,0.46,2.05,-8.8,26.7
2016-11-17 00:57:00,0.0,1.96757,0.00041,408.637,0.032,0.3594,0.0015,140.000,45.000,31723.43499,1.97461,410.422,36.000,45.072,45.000,0.00,0.07,-272.87,-272.92,-7,533,-944,22.0,10.1,-10.9,21.7,10.4,-10.7,0.46,1.72,-8.8,26.7
2016-11-17 00:58:00,0.0,1.96792,0.00031,408.667,0.031,0.3566,0.0014,140.000,45.000,31721.21710,1.97487,410.438,35.999,45.072,45.001,0.00,0.07,-272.88,-272.91,-9,532,-944,22.0,10.0,-11.0,21.7,10.4,-10.8,0.46,2.09,-8.8,26.7
2016-11-17 00:59:00,0.0,1.96792,0.00048,408.674,0.039,0.3550,0.0013,140.000,45.000,31721.11337,1.97488,410.435,36.000,45.072,45.001,0.00,0.07,-272.88,-272.91,-7,533,-944,22.0,10.0,-11.0,21.7,10.3,-10.8,0.46,1.71,-8.8,26.7
2016-11-17 01:00:00,0.0,1.96808,0.00035,408.697,0.031,0.3556,0.0018,140.000,45.000,31721.17149,1.97504,410.464,36.002,45.072,45.001,0.00,0.07,-272.88,-272.92,-9,532,-944,22.0,10.0,-11.1,21.7,10.3,-10.8,0.46,2.07,-8.8,26.7
2016-11-17 01:01:00,0.0,1.96806,0.00037,408.707,0.025,0.3528,0.0017,139.999,45.000,31720.65125,1.97495,410.457,36.039,45.072,45.000,0.00,0.07,-272.87,-272.90,-7,533,-944,22.0,9.9,-11.1,21.7,10.3,-10.9,0.46,1.77,-8.8,26.7
2016-11-17 01:02:00,0.0,1.96834,0.00034,408.766,0.041,0.3521,0.0021,139.998,45.000,31719.39960,1.97523,410.516,36.061,45.071,45.000,0.00,0.07,-272.87,-272.91,-9,533,-944,22.0,9.9,-11.2,21.7,10.2,-10.9,0.46,1.97,-8.8,26.7
2016-11-17 01:03:00,0.0,1.96828,0.00028,408.754,0.039,0.3503,0.0016,140.004,45.000,31720.20586,1.97512,410.491,36.064,45.071,45.000,0.00,0.07,-272.88,-272.92,-7,533,-944,22.0,9.9,-11.2,21.7,10.2,-11.0,0.46,1.89,-8.8,26.7
2016-11-17 01:04:00,0.0,1.96797,0.00029,408.729,0.031,0.3533,0.0016,140.001,45.000,31719.11627,1.97490,410.483,36.080,45.071,45.000,0.00,0.07,-272.87,-272.92,-9,532,-944,22.0,9.9,-11.1,21.7,10.2,-10.9,0.46,1.85,-8.8,26.7
2016-11-17 01:05:00,0.0,1.96771,0.00037,408.711,0.029,0.3522,0.0017,139.998,45.000,31719.00395,1.97460,410.460,36.071,45.071,45.000,0.00,0.07,-272.87,-272.91,-7,533,-944,22.0,9.9,-11.1,21.7,10.2,-10.9,0.46,2.00,-8.8,26.7
2016-11-17 01:06:00,0.0,1.96770,0.00033,408.706,0.033,0.3509,0.0021,140.002,45.000,31721.66550,1.97455,410.448,36.063,45.071,45.000,0.00,0.07,-272.87,-272.92,-9,532,-944,22.0,9.9,-11.2,21.7,10.2,-11.0,0.46,1.75,-8.8,26.7
2016-11-17 01:07:00,0.0,1.96769,0.00034,408.727,0.035,0.3520,0.0018,140.000,45.000,31721.85410,1.97456,410.473,36.062,45.071,45.000,0.00,0.07,-272.88,-272.91,-8,533,-944,22.0,9.9,-11.1,21.7,10.2,-11.0,0.46,2.07,-8.8,26.8
2016-11-17 01:08:00,0.0,1.96727,0.00035,408.706,0.038,0.3511,0.0014,139.998,45.000,31722.06065,1.97416,410.449,36.063,45.071,45.000,0.00,0.07,-272.87,-272.91,-8,533,-944,22.0,9.9,-11.2,21.7,10.2,-11.0,0.46,1.70,-8.8,26.8
2016-11-17 01:09:00,0.0,1.96741,0.00042,408.686,0.027,0.3511,0.0019,139.999,45.000,31722.42605,1.97427,410.429,36.064,45.071,45.000,0.00,0.07,-272.88,-272.91,-8,533,-944,22.0,9.9,-11.2,21.7,10.2,-11.0,0.46,2.09,-8.8,26.7
2016-11-17 01:10:00,0.0,1.96740,0.00050,408.640,0.046,0.3527,0.0021,139.999,45.000,31721.57973,1.97432,410.393,36.065,45.071,45.000,0.00,0.07,-272.88,-272.92,-8,532,-944,22.0,9.9,-11.1,21.7,10.2,-11.0,0.46,1.73,-8.8,26.8
2016-11-17 01:11:00,0.0,1.96709,0.00043,408.613,0.056,0.3539,0.0018,139.999,45.000,31720.65075,1.97401,410.370,36.073,45.071,45.000,0.00,0.07,-272.87,-272.91,-8,533,-944,22.0,10.0,-11.1,21.7,10.3,-10.9,0.46,2.03,-8.8,26.8
2016-11-17 01:12:00,0.0,1.96731,0.00034,408.610,0.049,0.3537,0.0015,139.995,45.000,31720.45346,1.97421,410.365,36.113,45.071,45.000,0.00,0.07,-272.88,-272.91,-8,532,-944,22.0,9.9,-11.1,21.7,10.3,-10.9,0.46,1.81,-8.8,26.7
2016-11-17 01:13:00,0.0,1.96740,0.00035,408.606,0.031,0.3532,0.0018,140.002,45.000,31719.17784,1.97432,410.359,36.122,45.071,45.000,0.00,0.07,-272.88,-272.91,-8,533,-944,22.0,9.9,-11.1,21.7,10.3,-10.9,0.46,1.93,-8.8,26.7
2016-11-17 01:14:00,0.0,1.96743,0.00029,408.619,0.042,0.3541,0.0021,139.999,45.000,31718.86868,1.97434,410.378,36.121,45.071,44.999,0.00,0.07,-272.88,-272.90,-8,532,-944,22.0,9.9,-11.1,21.7,10.3,-10.9,0.46,1.91,-8.8,26.7
2016-11-17 01:15:00,0.0,1.96711,0.00032,408.579,0.033,0.3547,0.0012,140.000,45.000,31721.53980,1.97405,410.339,36.125,45.071,45.000,0.00,0.07,-272.87,-272.91,-8,533,-944,22.0,10.0,-11.0,21.7,10.3,-10.9,0.46,1.83,-8.8,26.7
2016-11-17 01:16:00,0.0,1.96714,0.00036,408.555,0.045,0.3548,0.0016,139.999,45.000,31721.38380,1.97409,410.315,36.126,45.071,45.000,0.00,0.07,-272.88,-272.92,-8,532,-944,22.0,10.0,-11.0,21.7,10.3,-10.8,0.46,2.01,-8.8,26.7
2016-11-17 01:17:00,0.0,1.96714,0.00043,408.506,0.033,0.3566,0.0022,140.000,45.000,31720.43492,1.97409,410.277,36.126,45.071,45.000,0.00,0.07,-272.87,-272.92,-8,533,-944,22.0,10.0,-11.0,21.7,10.3,-10.8,0.46,1.74,-8.8,26.7
2016-11-17 01:18:00,0.0,1.96696,0.00027,408.515,0.022,0.3574,0.0017,140.000,45.000,31719.43756,1.97397,410.289,36.124,45.071,45.000,0.00,0.07,-272.88,-272.91,-8,532,-944,22.0,10.0,-11.0,21.7,10.4,-10.8,0.46,2.07,-8.8,26.7
2016-11-17 01:19:00,0.0,1.96719,0.00051,408.487,0.033,0.3573,0.0020,140.000,45.000,31717.60362,1.97413,410.260,36.078,45.071,45.000,0.00,0.07,-272.87,-272.91,-9,532,-944,22.0,10.1,-11.0,21.7,10.4,-10.7,0.46,1.71,-8.8,26.7
2016-11-17 01:20:00,0.0,1.96715,0.00034,408.446,0.030,0.3601,0.0017,140.000,45.000,31717.91279,1.97423,410.234,36.067,45.071,45.000,0.00,0.07,-272.88,-272.92,-8,532,-944,22.0,10.1,-10.9,21.7,10.5,-10.7,0.46,2.09,-8.8,26.7
2016-11-17 01:21:00,0.0,1.96727,0.00040,408.418,0.027,0.3631,0.0020,140.002,45.000,31716.58075,1.97436,410.219,36.096,45.071,45.000,0.00,0.07,-272.88,-272.91,-9,533,-944,22.0,10.2,-10.8,21.7,10.5,-10.6,0.46,1.73,-8.8,26.7
2016-11-17 01:22:00,0.0,1.96720,0.00035,408.422,0.039,0.3644,0.0017,139.999,45.000,31714.91003,1.97433,410.231,36.123,45.072,45.000,0.00,0.07,-272.87,-272.91,-8,532,-944,22.0,10.3,-10.7,21.7,10.6,-10.5,0.46,2.03,-8.8,26.7
2016-11-17 01:23:00,0.0,1.96701,0.00039,408.375,0.033,0.3662,0.0016,140.001,45.000,31717.51392,1.97417,410.193,36.124,45.071,45.000,0.00,0.07,-272.88,-272.91,-9,532,-944,22.0,10.3,-10.7,21.7,10.7,-10.4,0.46,1.81,-8.8,26.8
2016-11-17 01:24:00,0.0,1.96716,0.00040,408.334,0.031,0.3683,0.0018,139.998,45.000,31716.10676,1.97438,410.162,36.116,45.071,45.000,0.00,0.07,-272.88,-272.91,-7,532,-944,22.0,10.4,-10.6,21.7,10.7,-10.4,0.46,1.93,-8.9,26.7
2016-11-17 01:25:00,0.0,1.96731,0.00036,408.314,0.031,0.3683,0.0013,139.999,45.000,31714.42027,1.97451,410.141,36.080,45.071,45.000,0.00,0.07,-272.88,-272.90,-9,532,-944,22.0,10.4,-10.6,21.7,10.7,-10.3,0.46,1.92,-8.8,26.7
2016-11-17 01:26:00,0.0,1.96701,0.00044,408.317,0.033,0.3692,0.0016,139.999,45.000,31712.90064,1.97424,410.149,36.062,45.071,45.000,0.00,0.07,-272.87,-272.92,-7,532,-943,22.0,10.4,-10.6,21.7,10.7,-10.3,0.46,1.81,-8.9,26.7
2016-11-17 01:27:00,0.0,1.96620,0.00036,408.286,0.032,0.3702,0.0016,140.001,45.000,31714.20760,1.97344,410.124,36.045,45.072,45.000,0.00,0.07,-272.89,-272.91,-9,532,-943,22.0,10.4,-10.5,21.7,10.8,-10.3,0.46,2.03,-8.9,26.7
2016-11-17 01:28:00,0.0,1.96647,0.00044,408.268,0.031,0.3696,0.0017,140.001,45.000,31713.78384,1.97371,410.101,36.029,45.072,45.001,0.00,0.07,-272.86,-272.91,-7,532,-943,22.0,10.4,-10.5,21.7,10.8,-10.3,0.46,1.73,-8.8,26.7
2016-11-17 01:29:00,0.0,1.96645,0.00043,408.281,0.032,0.3695,0.0018,140.002,45.000,31714.17496,1.97364,410.116,36.053,45.072,45.001,0.00,0.07,-272.87,-272.91,-9,532,-944,22.0,10.4,-10.6,21.7,10.7,-10.3,0.46,2.08,-8.8,26.7
2016-11-17 01:30:00,0.0,1.96630,0.00035,408.253,0.027,0.3706,0.0016,139.998,45.000,31712.75025,1.97356,410.091,36.063,45.072,45.001,0.00,0.07,-272.88,-272.92,-7,532,-944,22.0,10.4,-10.5,21.7,10.8,-10.3,0.46,1.71,-8.9,26.7
2016-11-17 01:31:00,0.0,1.96641,0.00036,408.198,0.036,0.3717,0.0019,139.999,45.000,31713.13974,1.97370,410.042,36.105,45.072,45.001,0.00,0.07,-272.87,-272.91,-9,532,-943,22.0,10.5,-10.4,21.7,10.8,-10.3,0.46,2.06,-8.9,26.7
2016-11-17 01:32:00,0.0,1.96607,0.00041,408.166,0.030,0.3739,0.0015,140.000,45.000,31712.76939,1.97338,410.022,36.154,45.072,45.000,0.00,0.07,-272.87,-272.91,-7,532,-944,22.0,10.5,-10.4,21.7,10.9,-10.2,0.46,1.77,-8.8,26.7
2016-11-17 01:33:00,0.0,1.96560,0.00039,408.155,0.030,0.3753,0.0018,140.001,45.000,31714.05653,1.97296,410.017,36.189,45.071,45.000,0.00,0.07,-272.88,-272.92,-9,532,-944,22.0,10.6,-10.3,21.7,10.9,-10.1,0.46,1.97,-8.9,26.7
2016-11-17 01:34:00,0.0,1.96520,0.00035,408.121,0.023,0.3745,0.0017,140.001,45.000,31714.90402,1.97253,409.978,36.190,45.071,44.999,0.00,0.07,-272.88,-272.91,-7,532,-943,22.0,10.6,-10.3,21.7,10.9,-10.2,0.46,1.89,-8.9,26.7
2016-11-17 01:35:00,0.0,1.96499,0.00035,408.124,0.027,0.3729,0.0017,140.000,45.000,31716.02327,1.97228,409.974,36.186,45.071,45.000,0.00,0.07,-272.87,-272.91,-9,532,-944,22.0,10.5,-10.4,21.7,10.9,-10.2,0.46,1.83,-8.8,26.7
2016-11-17 01:36:00,0.0,1.96505,0.00041,408.149,0.037,0.3710,0.0024,139.999,45.000,31713.07553,1.97228,409.989,36.188,45.071,45.000,0.00,0.07,-272.89,-272.91,-7,532,-944,22.0,10.4,-10.5,21.7,10.8,-10.2,0.46,2.02,-8.9,26.7
2016-11-17 01:37:00,0.0,1.96533,0.00026,408.128,0.031,0.3725,0.0023,140.001,45.000,31711.78439,1.97261,409.976,36.188,45.071,45.000,0.00,0.07,-272.88,-272.91,-9,532,-943,22.0,10.5,-10.4,21.7,10.8,-10.2,0.46,1.73,-8.9,26.7
2016-11-17 01:38:00,0.0,1.96511,0.00035,408.091,0.023,0.3736,0.0020,140.001,45.000,31713.01288,1.97241,409.945,36.187,45.071,45.000,0.00,0.07,-272.88,-272.91,-7,532,-943,22.0,10.5,-10.4,21.7,10.9,-10.2,0.46,2.08,-8.9,26.7
2016-11-17 01:39:00,0.0,1.96480,0.00041,408.095,0.035,0.3733,0.0016,140.000,45.000,31711.43626,1.97212,409.947,36.180,45.071,45.000,0.00,0.07,-272.87,-272.91,-9,532,-943,22.0,10.5,-10.4,21.7,10.9,-10.2,0.46,1.70,-8.8,26.7
2016-11-17 01:40:00,0.0,1.96434,0.00034,408.053,0.038,0.3753,0.0019,139.999,45.000,31712.47763,1.97168,409.914,36.159,45.071,45.000,0.00,0.07,-272.89,-272.92,-7,532,-943,22.0,10.6,-10.3,21.7,10.9,-10.1,0.46,2.08,-8.9,26.7
2016-11-17 01:41:00,0.0,1.96406,0.00032,408.035,0.028,0.3744,0.0017,140.002,45.000,31712.29902,1.97139,409.892,36.133,45.071,45.000,0.00,0.07,-272.88,-272.91,-9,532,-943,22.0,10.5,-10.4,21.7,10.9,-10.1,0.46,1.73,-8.9,26.7
2016-11-17 01:42:00,0.0,1.96362,0.00033,408.024,0.032,0.3709,0.0020,140.001,45.000,31712.69149,1.97089,409.864,36.123,45.071,45.000,0.00,0.07,-272.87,-272.90,-7,532,-943,22.0,10.5,-10.5,21.7,10.9,-10.2,0.46,2.03,-8.8,26.7
2016-11-17 01:43:00,0.0,1.96342,0.00042,408.035,0.037,0.3716,0.0021,139.998,45.000,31711.81033,1.97064,409.878,36.088,45.071,45.000,0.00,0.07,-272.88,-272.91,-9,532,-943,22.0,10.4,-10.5,21.7,10.8,-10.2,0.46,1.82,-8.9,26.7
2016-11-17 01:44:00,0.0,1.96343,0.00036,408.023,0.039,0.3708,0.0018,140.001,45.000,31712.15343,1.97070,409.862,36.064,45.072,45.001,0.00,0.07,-272.87,-272.92,-7,532,-943,22.0,10.5,-10.5,21.7,10.8,-10.2,0.46,1.92,-8.9,26.7